Regional Weather Roundup
Issued by NWS

Home | Current Version | Previous Version | Text Only | Print | Product List | Glossary Off
Versions: 1 2 3 4 5 6 7 8 9 10 11 12 13 14 15 16 17 18 19 20 21 22 23 24 25 26 27 28 29 30 31 32 33 34 35 36 37 38 39 40 41 42 43 44 45 46 47 48 49 50

000
ASUS43 KDTX 311410
RWRMI
MICHIGAN HOURLY REGIONAL WEATHER ROUNDUP
NATIONAL WEATHER SERVICE DETROIT/PONTIAC MI
1000 AM EDT FRI JUL 31 2015

NOTE: "FAIR" INDICATES FEW OR NO CLOUDS BELOW 12,000 FEET WITH NO
SIGNIFICANT WEATHER AND/OR OBSTRUCTION TO VISIBILITY.

MIZ047>049-052>055-059>063-066>070-074>076-081>083-311500-
SOUTHEAST LOWER MICHIGAN

CITY           SKY/WX    TMP DP  RH WIND       PRES   REMARKS
ADRIAN         SUNNY     76  62  62 W6        29.99S
ALMA           SUNNY     76  64  65 W8        29.93S
ANN ARBOR      SUNNY     77  61  57 W12       29.96S
BAD AXE        SUNNY     73  61  66 W7        29.89F
CARO           SUNNY     75  62  63 SW7       29.90S
DETROIT CITY   SUNNY     79  57  46 W9        29.95R
DETROIT        SUNNY     79  59  50 W8        29.96S
FLINT          SUNNY     79  61  53 W10       29.93F
GROSSE ILE     SUNNY     79  61  53 W5        29.95R
HILLSDALE      SUNNY     76  62  61 W9        30.00F
HOWELL         SUNNY     77  60  56 W8        29.95F

CITY           SKY/WX    TMP DP  RH WIND       PRES   REMARKS
JACKSON        SUNNY     75  62  64 W8        29.98S
LAMBERTVILLE   SUNNY     77  62  59 W8        29.98S
LANSING        SUNNY     77  61  57 W12       29.96S
LAPEER         FAIR      76  59  56 W10       29.93S
MASON          SUNNY     74  60  63 W9        29.96S
MONROE         SUNNY     77  62  59 W6        29.96S
MT. CLEMENS    MOSUNNY   79  59  49 W12       29.91S
PONTIAC        SUNNY     77  61  57 W7        29.94S
PORT HOPE        N/A     75  64  68 SW9       29.85F
PORT HURON     PTSUNNY   75  63  64 W6        29.92S
TRI CITIES     SUNNY     76  62  62 W13       29.91F
MIDLAND        FAIR      76  60  57 W8        29.89S
TROY           SUNNY     79  56  46 W9G16     29.96R
SAGINAW HB     SUNNY     77  61  57 W10       29.89S
$$
MIZ043>046-050>051-056>058-064>065-071>073-077>080-311500-
SOUTHWEST LOWER MICHIGAN

CITY           SKY/WX    TMP DP  RH WIND       PRES   REMARKS
BATTLE CREEK   SUNNY     77  63  61 W9        29.98F
BENTON HARBOR  PTSUNNY   78  64  61 W15       30.00R
BIG RAPIDS     SUNNY     75  62  64 W13       29.92S
COLDWATER      SUNNY     74  62  66 W8        30.00F
FREMONT        FAIR      75  62  63 W8        29.93S
HOLLAND        SUNNY     77  63  61 W10       29.97S
GRAND RAPIDS   MOSUNNY   78  61  55 W9        29.95F
IONIA          FAIR      77  62  59 W9        29.94F
KALAMAZOO      SUNNY     78  62  57 W10       29.99S
LUDINGTON      SUNNY     76  66  70 NW10      29.92S
MARSHALL       SUNNY     77  63  62 W7        29.98S
MOUNT PLEASANT SUNNY     78  61  55 W10       29.90F
MUSKEGON       MOSUNNY   76  58  53 W12       29.94F
SOUTH HAVEN    MOSUNNY   76  63  62 W12       29.99S
$$
MIZ016>042-311500-
NORTHERN LOWER MICHIGAN

CITY           SKY/WX    TMP DP  RH WIND       PRES   REMARKS
ALPENA         SUNNY     75  59  57 W10       29.83F
BEAVER ISLAND  PTSUNNY   72  61  67 W8G16     29.83S
BELLAIRE       PTSUNNY   75  62  62 W5        29.86R
CADILLAC       SUNNY     73  61  65 W7        29.91S
CHARLEVOIX     SUNNY     73  62  68 W13G20    29.87S
FRANKFORT      SUNNY     72  64  75 W9        29.88F
GAYLORD        SUNNY     73  58  59 W10       29.86F
GRAYLING       SUNNY     74  59  58 W7        29.88S
HARBOR SPRINGS PTSUNNY   72  64  75 SW6       29.84S
HOUGHTON LAKE  SUNNY     72  60  66 W8        29.90S
MANISTEE       MOSUNNY   72  59  64 W13G18    29.91S
OSCODA         SUNNY     78  58  50 W9        29.84F
PELLSTON       MOSUNNY   73  61  65 SW9       29.83F
ROGERS CITY    SUNNY     75  61  62 W8        29.83S
TRAVERSE CITY  MOSUNNY   77  60  55 W10       29.85S
$$
MIZ007>008-015-311500-
EASTERN UPPER MICHIGAN

CITY           SKY/WX    TMP DP  RH WIND       PRES   REMARKS
KINROSS        MOSUNNY   70  55  60 NW9       29.81S
MACKINAC ISLAN   N/A     70  60  70 SW7       29.81F
MUNISING         N/A     71  56  58 NW15G26   29.83S
$$
MIZ004>006-011>014-085-311500-
CENTRAL UPPER MICHIGAN

CITY           SKY/WX    TMP DP  RH WIND       PRES   REMARKS
MANISTIQUE     SUNNY     72  57  60 NW9       29.82F
ESCANABA       MOSUNNY   72  55  56 NW14      29.84S
MENOMINEE      MOSUNNY   70  57  64 W3        29.88S
SAWYER-GWINN   SUNNY     70  54  56 NW16G22   29.85F
$$
MIZ001>003-009>011-084-311500-
WESTERN UPPER MICHIGAN

CITY           SKY/WX    TMP DP  RH WIND       PRES   REMARKS
IRON MOUNTAIN  SUNNY     71  56  58 W12       29.88S
HOUGHTON       SUNNY     65  55  70 W15       29.86R
COPPER HARBOR    N/A     66  53  63 NW9G21    29.82S
IRONWOOD       SUNNY     64  57  77 W14G21    29.92S
$$

ABBREVIATIONS USED IN REMARKS
   TC - TEMPERATURE IN CELSIUS
  WCI - WIND CHILL INDEX
   HX - HEAT INDEX
  VSB - VISIBILITY




USA.gov is the U.S. government's official web portal to all federal, state and local government web resources and services.